Tracking 18816 objects as of 17-October-2017
HD Live streaming from Space Station
objects crossing your sky now

GOES 7

Track GOES 7 now!
GOES 7 is classified as:


NORAD ID: 17561
Int'l Code: 1987-022A
Perigee: 35,874.1 km
Apogee: 35,920.7 km
Inclination: 15.1 °
Period: 1,441.4 minutes
Semi major axis: 42268 km
RCS: 10.3409 m2 (large)
Launch date: February 26, 1987
Source: United States (US)
Launch site: AIR FORCE EASTERN TEST RANGE (AFETR)
aabbcc
Your satellite tracking list
Your tracking list is empty





NASA's NSSDC Master Catalog

Two Line Element Set (TLE):
1 17561U 87022A   17286.86961608  .00000023  00000-0  00000+0 0  9991
2 17561  15.1450   4.5678 0005512 286.2433  64.1713  0.99903283 95323
Source of the keplerian elements: AFSPC